[[{"header":{"parameterUnit":"m.s-1","parameterCategory":1,"la1":30.2991,"la2":30.254,"lo1":-89.0895,"lo2":-89.0444,"dy":0.0017,"dx":0.0017,"nx":28,"ny":28,"refTime":"2025-05-21T21:00:00:Z","depth":0,"parameterNumber":2,"parameterNumberName":"U-component_of_WINDS"},"data":[0,0,0,0,0,0,0,0,0,0,0,0,0,0,0,0,0,0,0,0,0,0,0,0,0,0,0,0,0,0,0,0,0,0,0,0,0,0,0,0,0,0,0,0,0,0,0,0,0,0,0,0,0,0,0,0,0,0,-0.9333,-0.9335,0,-0.9484,-0.9486,-0.9487,-0.9503,-0.9502,-0.95,-0.9499,-0.9656,-0.9662,-0.9667,0,0,0,0,0,0,0,0,0,0,0,0,0,-0.9063,-0.9068,-0.9333,-0.9335,-0.9337,-0.9484,-0.9486,-0.9488,-0.9504,-0.9502,-0.95,-0.9498,-0.9655,-0.9661,-0.9668,0,0,0,0,0,0,0,0,0,0,0,0,0,-0.9194,-0.9069,-0.9333,-0.9362,-0.9367,-0.9483,-0.9486,-0.9488,-0.9504,-0.9502,-0.9499,-0.9497,-0.9652,-0.9661,-0.9669,-0.9767,0,0,-0.9695,-0.9698,0,0,0,0,0,0,0,0,-0.9186,-0.9204,-0.9356,-0.9361,-0.9365,-0.9472,-0.9448,-0.9582,-0.9505,-0.9452,-0.9499,-0.9496,-0.9597,-0.961,-0.9644,-0.9775,-0.9782,-0.9695,-0.9701,-0.9704,-0.9707,0,0,0,0,0,0,0,-0.9177,-0.9197,-0.9393,-0.9358,-0.9364,-0.9369,-0.9385,-0.9474,-0.9536,-0.9456,-0.9458,-0.9475,-0.9599,-0.9635,-0.9647,-0.9784,-0.9695,-0.9703,-0.9708,-0.9711,-1.0006,-1.0008,0,0,0,0,0,0,-0.9162,-0.919,-0.9388,-0.9397,-0.9268,-0.9376,-0.9394,-0.944,-0.9535,-0.9547,-0.9477,-0.9475,-0.9622,-0.9637,-0.9653,-0.9776,-0.9704,-0.9712,-0.9717,-1.0003,-1.0006,-1.0009,0,0,0,0,0,0,-0.9156,-0.918,-0.9382,-0.9294,-0.932,-0.9383,-0.9435,-0.9445,-0.9481,-0.9551,-0.9562,-0.9502,-0.9621,-0.9641,-0.9739,-0.9781,-0.9716,-0.9724,-1.0,-1.0004,-1.0008,-1.0021,0,0,0,0,0,0,-0.9148,-0.9177,-0.9214,-0.9295,-0.9325,-0.9464,-0.9438,-0.9449,-0.9495,-0.9494,-0.9577,-0.9589,-0.9621,-0.9726,-0.9747,-0.9792,-0.973,-0.9996,-1.0002,-1.0007,-1.0017,-1.0025,-1.0032,0,0,0,0,0,-0.9139,-0.9212,-0.9216,-0.924,-0.9372,-0.9467,-0.9484,-0.9518,-0.9498,-0.9537,-0.9582,-0.9586,-0.9773,-0.9736,-0.976,-0.9808,-0.9994,-1.0,-1.0006,-1.0014,-1.0024,-1.0032,0,0,0,0,0,0,-0.9136,-0.9223,-0.9229,-0.933,-0.9391,-0.9469,-0.9519,-0.9527,-0.9596,-0.9592,-0.9633,-0.9651,-0.9748,-0.9788,-0.9745,-0.9909,-0.9882,-0.9893,-0.9879,-0.9889,-0.9897,-0.9885,-0.9737,0,0,0,0,0,-0.9147,-0.9216,-0.9289,-0.9371,-0.9402,-0.9455,-0.9497,-0.9518,-0.9583,-0.9609,-0.9662,-0.9725,-0.9799,-0.9846,-0.9918,-1.0023,-1.0043,-1.0068,-1.0075,-1.0081,-1.009,-1.0151,-1.0164,-1.003,-1.003,-1.003,0,0,-0.9171,-0.9227,-0.9268,-0.9372,-0.9422,-0.9493,-0.9476,-0.9552,-0.9606,-0.9621,-0.9717,-0.9758,-0.9832,-0.9934,-0.9982,-0.997,-1.0132,-1.0089,-1.0093,-1.01,-1.0159,-1.0171,-1.0182,-1.0034,-1.0033,-1.0033,0,0,-0.9251,-0.93,-0.9375,-0.9425,-0.95,-0.9535,-0.9553,-0.9631,-0.9658,-0.9755,-0.9768,-0.9834,-0.9959,-1.0011,-1.0055,-1.0156,-1.0163,-1.0179,-1.0217,-1.0276,-1.0287,-1.0296,-1.0333,-1.0346,-1.0188,-1.0188,-1.0188,0,-0.9272,-0.9378,-0.9413,-0.9488,-0.9535,-0.9551,-0.9628,-0.9676,-0.9771,-0.9803,-0.9788,-0.9946,-0.9997,-1.0113,-1.0138,-1.0172,-1.0195,-1.0169,-1.0282,-1.0292,-1.0301,-1.0338,-1.0351,-1.0189,-1.0189,-1.0189,-1.0189,0,-0.9401,-0.9475,-0.9526,-0.9617,-0.9669,-0.9745,-0.9792,-0.9841,-0.9858,-0.9896,-0.9995,-1.0057,-1.0141,-1.0171,-1.0188,-1.029,-1.028,-1.0273,-1.0247,-1.0315,-1.035,-1.0364,-1.0191,-1.0191,-1.019,-1.019,0,0,-0.9482,-0.9592,-0.961,-0.9652,-0.9737,-0.9795,-0.9873,-0.9955,-0.9997,-1.0062,-1.013,-1.0236,-1.023,-1.0279,-1.0303,-1.0355,-1.0433,-1.0342,-1.0344,-1.0357,-1.055,-1.0555,-1.057,-1.0438,-1.0441,-1.0443,-1.0544,0,-0.9572,-0.971,-0.9744,-0.9862,-0.9931,-0.9949,-1.0017,-1.0078,-1.0115,-1.0181,-1.0223,-1.0298,-1.0284,-1.0314,-1.0366,-1.0412,-1.0472,-1.0406,-1.0502,-1.0505,-1.0483,-1.0588,-1.0593,-1.0686,-1.0558,-1.056,-1.0562,0,-0.9696,-0.9763,-0.9888,-0.9965,-0.9995,-1.0055,-1.0134,-1.0197,-1.0266,-1.029,-1.0345,-1.0365,-1.0448,-1.0417,-1.0534,-1.0488,-1.053,-1.0559,-1.0563,-1.0574,-1.0538,-1.0602,-1.0716,-1.073,-1.0584,-1.0582,-1.058,0,-0.9743,-0.9866,-0.9957,-0.9992,-1.0084,-1.0126,-1.0166,-1.0234,-1.0281,-1.0351,-1.0383,-1.0461,-1.0505,-1.0566,-1.0607,-1.058,-1.0721,-1.0693,-1.0744,-1.0743,-1.0772,-1.077,-1.0895,-1.0799,-1.0799,-1.0798,-1.0798,0,-0.9841,-0.9916,-0.9979,-1.0035,-1.0121,-1.0161,-1.0245,-1.0287,-1.0346,-1.0412,-1.0433,-1.0494,-1.0544,-1.0613,-1.0645,-1.0738,-1.0757,-1.078,-1.0787,-1.0778,-1.0775,-1.0806,-1.0801,-1.0802,-1.0801,-1.08,-1.08,0,-0.9908,-0.9953,-1.0054,-1.0133,-1.0154,-1.0215,-1.0283,-1.0339,-1.0377,-1.046,-1.0482,-1.0543,-1.0625,-1.0672,-1.0775,-1.0797,-1.09,-1.0905,-1.0876,-1.088,-1.0928,-1.0923,-1.1078,-1.11,-1.0989,-1.099,-1.0991,0,-0.9967,-1.0026,-1.0111,-1.0156,-1.0197,-1.0269,-1.0318,-1.036,-1.041,-1.0495,-1.0541,-1.0624,-1.0693,-1.0824,-1.0878,-1.0958,-1.0965,-1.1013,-1.0977,-1.0966,-1.0966,-1.0962,-1.0969,-1.102,-1.1021,-1.1021,-1.1022,0,-1.0067,-1.0087,-1.0156,-1.0234,-1.0291,-1.0355,-1.0418,-1.0454,-1.0506,-1.0562,-1.0646,-1.0699,-1.0805,-1.0888,-1.0972,-1.1016,-1.1029,-1.1033,-1.1049,-1.104,-1.1021,-1.1033,-1.0894,-1.1029,-1.1029,-1.1028,-1.1028,-1.1027,-1.0133,-1.0186,-1.0255,-1.0332,-1.0384,-1.0442,-1.0499,-1.0545,-1.0615,-1.0704,-1.0725,-1.0813,-1.0884,-1.0998,-1.1044,-1.1115,-1.1107,-1.113,-1.1136,-1.1141,-1.1143,-1.101,-1.1131,-1.1131,-1.1131,-1.113,-1.113,0,-1.0234,-1.028,-1.035,-1.0437,-1.0498,-1.0504,-1.0575,-1.0626,-1.0703,-1.0767,-1.0834,-1.0932,-1.1013,-1.1074,-1.1157,-1.1202,-1.121,-1.1223,-1.122,-1.123,-1.1145,-1.1123,-1.1215,-1.1215,-1.1215,-1.1215,-1.1215,-1.1215,-1.0294,-1.0385,-1.0414,-1.0532,-1.0577,-1.0663,-1.0703,-1.0758,-1.0809,-1.0917,-1.0984,-1.1023,-1.1087,-1.1175,-1.125,-1.1267,-1.1297,-1.1308,-1.1325,-1.1245,-1.1236,-1.1227,-1.1207,-1.1314,-1.1315,-1.1404,-1.1405,-1.1406]},{"header":{"parameterUnit":"m.s-1","parameterCategory":1,"la1":30.2991,"la2":30.254,"lo1":-89.0895,"lo2":-89.0444,"dy":0.0017,"dx":0.0017,"nx":28,"ny":28,"refTime":"2025-05-21T21:00:00:Z","depth":0,"parameterNumber":3,"parameterNumberName":"V-component_of_WINDS"},"data":[0,0,0,0,0,0,0,0,0,0,0,0,0,0,0,0,0,0,0,0,0,0,0,0,0,0,0,0,0,0,0,0,0,0,0,0,0,0,0,0,0,0,0,0,0,0,0,0,0,0,0,0,0,0,0,0,0,0,-1.8744,-1.8744,0,-1.8686,-1.8685,-1.8684,-1.8631,-1.863,-1.8629,-1.8629,-1.8566,-1.8565,-1.8564,0,0,0,0,0,0,0,0,0,0,0,0,0,-1.8806,-1.8806,-1.8744,-1.8744,-1.8743,-1.8686,-1.8685,-1.8684,-1.8631,-1.863,-1.8629,-1.8629,-1.8567,-1.8565,-1.8564,0,0,0,0,0,0,0,0,0,0,0,0,0,-1.8767,-1.8805,-1.8745,-1.871,-1.8706,-1.8686,-1.8685,-1.8684,-1.8631,-1.863,-1.8629,-1.8628,-1.8567,-1.8565,-1.8564,-1.8573,0,0,-1.8559,-1.8558,0,0,0,0,0,0,0,0,-1.8769,-1.8765,-1.8715,-1.8712,-1.8708,-1.8665,-1.8684,-1.8647,-1.8631,-1.8659,-1.8629,-1.8628,-1.86,-1.8595,-1.8586,-1.857,-1.8567,-1.8559,-1.8558,-1.8557,-1.8557,0,0,0,0,0,0,0,-1.8772,-1.8767,-1.8721,-1.8715,-1.871,-1.8695,-1.8689,-1.8676,-1.8635,-1.8657,-1.8653,-1.8647,-1.8597,-1.8588,-1.8584,-1.8566,-1.8559,-1.8557,-1.8556,-1.8556,-1.8552,-1.8553,0,0,0,0,0,0,-1.8781,-1.8769,-1.8723,-1.8719,-1.8737,-1.8695,-1.8688,-1.8679,-1.8635,-1.8628,-1.8648,-1.8644,-1.8591,-1.8586,-1.8582,-1.8588,-1.8557,-1.8556,-1.8555,-1.8551,-1.8552,-1.8553,0,0,0,0,0,0,-1.8782,-1.8777,-1.8725,-1.8743,-1.8736,-1.8695,-1.8686,-1.8679,-1.8669,-1.8629,-1.8621,-1.8646,-1.859,-1.8584,-1.8575,-1.8585,-1.8555,-1.8553,-1.855,-1.8551,-1.8552,-1.8602,0,0,0,0,0,0,-1.8784,-1.8778,-1.8782,-1.8744,-1.8735,-1.8721,-1.8687,-1.8678,-1.8667,-1.8662,-1.8625,-1.8618,-1.8589,-1.8578,-1.8574,-1.8583,-1.8552,-1.8549,-1.8551,-1.8552,-1.8599,-1.8605,-1.861,0,0,0,0,0,-1.8787,-1.8798,-1.8783,-1.8777,-1.8739,-1.8722,-1.8717,-1.8684,-1.8668,-1.8671,-1.8644,-1.8619,-1.8585,-1.8577,-1.8572,-1.8581,-1.8548,-1.855,-1.8552,-1.8597,-1.8604,-1.8609,0,0,0,0,0,0,-1.8838,-1.8793,-1.8775,-1.8775,-1.8753,-1.8713,-1.8716,-1.8693,-1.8674,-1.867,-1.863,-1.8622,-1.8617,-1.8598,-1.859,-1.8586,-1.8563,-1.8564,-1.8599,-1.8605,-1.861,-1.8615,-1.8551,0,0,0,0,0,-1.885,-1.8841,-1.8801,-1.8804,-1.8794,-1.8757,-1.8748,-1.8725,-1.87,-1.869,-1.8663,-1.8639,-1.8622,-1.8612,-1.8595,-1.8596,-1.8586,-1.8599,-1.8604,-1.8609,-1.861,-1.8606,-1.8611,-1.8559,-1.8559,-1.8559,0,0,-1.8874,-1.8847,-1.8844,-1.8814,-1.8794,-1.8784,-1.875,-1.8741,-1.8732,-1.8688,-1.8678,-1.8657,-1.8627,-1.8623,-1.8619,-1.8607,-1.8622,-1.8611,-1.8615,-1.8614,-1.8609,-1.8614,-1.8618,-1.8561,-1.856,-1.856,0,0,-1.8911,-1.8891,-1.8891,-1.8872,-1.8842,-1.8817,-1.8817,-1.878,-1.8765,-1.8754,-1.872,-1.8709,-1.8682,-1.8661,-1.8648,-1.8675,-1.865,-1.867,-1.8697,-1.8695,-1.8699,-1.8702,-1.871,-1.8714,-1.8672,-1.8672,-1.8672,0,-1.8944,-1.8929,-1.8894,-1.8887,-1.8874,-1.8834,-1.8833,-1.8815,-1.8781,-1.8772,-1.8759,-1.8723,-1.87,-1.8689,-1.8695,-1.8686,-1.8683,-1.8675,-1.8701,-1.8704,-1.8707,-1.8714,-1.8718,-1.8674,-1.8674,-1.8674,-1.8674,0,-1.897,-1.896,-1.8963,-1.8931,-1.8919,-1.8915,-1.8878,-1.8869,-1.8846,-1.8822,-1.8809,-1.878,-1.8756,-1.8751,-1.8729,-1.8736,-1.8729,-1.8709,-1.8685,-1.8715,-1.8721,-1.8724,-1.8678,-1.8677,-1.8677,-1.8676,0,0,-1.904,-1.8988,-1.899,-1.8975,-1.8938,-1.8928,-1.8921,-1.8897,-1.889,-1.8867,-1.8859,-1.8836,-1.8816,-1.88,-1.8775,-1.8772,-1.8794,-1.8752,-1.875,-1.876,-1.8798,-1.8813,-1.8817,-1.8777,-1.8777,-1.8778,-1.88,0,-1.9071,-1.9058,-1.9026,-1.9021,-1.901,-1.8971,-1.8964,-1.894,-1.8916,-1.8902,-1.8875,-1.8859,-1.8835,-1.8825,-1.8821,-1.8792,-1.8801,-1.879,-1.8767,-1.8767,-1.8776,-1.8821,-1.8837,-1.886,-1.8802,-1.8803,-1.8803,0,-1.9107,-1.9086,-1.9081,-1.9043,-1.9037,-1.9032,-1.9007,-1.8994,-1.8965,-1.8947,-1.8929,-1.8901,-1.8889,-1.8866,-1.8848,-1.8842,-1.883,-1.8814,-1.8814,-1.8811,-1.8787,-1.8818,-1.8867,-1.887,-1.8807,-1.8806,-1.8806,0,-1.9157,-1.9129,-1.9121,-1.9109,-1.9065,-1.9062,-1.9043,-1.9013,-1.9,-1.8977,-1.8968,-1.8944,-1.893,-1.8911,-1.8876,-1.8863,-1.8861,-1.8836,-1.8845,-1.8846,-1.8846,-1.8847,-1.8894,-1.884,-1.884,-1.884,-1.884,0,-1.9195,-1.9194,-1.9143,-1.9139,-1.9135,-1.9096,-1.9093,-1.907,-1.9043,-1.9032,-1.8996,-1.8986,-1.894,-1.8924,-1.8896,-1.8885,-1.8879,-1.8863,-1.8856,-1.8866,-1.8868,-1.8858,-1.8856,-1.884,-1.884,-1.884,-1.884,0,-1.9252,-1.9218,-1.9208,-1.9166,-1.9156,-1.9154,-1.9118,-1.9111,-1.9085,-1.9071,-1.9065,-1.9023,-1.9002,-1.8965,-1.8934,-1.8915,-1.8908,-1.8896,-1.8919,-1.8914,-1.8924,-1.8924,-1.8966,-1.8969,-1.8914,-1.8915,-1.8915,0,-1.9278,-1.9276,-1.9234,-1.9225,-1.9207,-1.9193,-1.9179,-1.914,-1.9127,-1.9092,-1.9089,-1.9065,-1.9044,-1.9012,-1.8978,-1.8953,-1.8939,-1.8955,-1.8935,-1.8945,-1.8938,-1.8938,-1.8937,-1.896,-1.8961,-1.8962,-1.8962,0,-1.9329,-1.9312,-1.9295,-1.9271,-1.9256,-1.9235,-1.9212,-1.9206,-1.9161,-1.9148,-1.9127,-1.911,-1.9077,-1.9054,-1.9023,-1.9001,-1.8974,-1.8969,-1.8969,-1.898,-1.8993,-1.8985,-1.8931,-1.8968,-1.8968,-1.8967,-1.8967,-1.8967,-1.9371,-1.9366,-1.9336,-1.9317,-1.9295,-1.9274,-1.9265,-1.9237,-1.9219,-1.919,-1.9168,-1.9147,-1.9115,-1.9071,-1.9051,-1.9033,-1.902,-1.9021,-1.9022,-1.9022,-1.9026,-1.8996,-1.9027,-1.9027,-1.9027,-1.9027,-1.9026,0,-1.9419,-1.9397,-1.938,-1.9349,-1.9333,-1.9309,-1.9282,-1.927,-1.9253,-1.9226,-1.9206,-1.918,-1.9156,-1.9119,-1.9091,-1.9084,-1.907,-1.9078,-1.9078,-1.9073,-1.9039,-1.9041,-1.9089,-1.9089,-1.9089,-1.9089,-1.9089,-1.9089,-1.9442,-1.9432,-1.9411,-1.939,-1.9367,-1.9348,-1.9334,-1.9314,-1.9292,-1.9265,-1.9245,-1.9221,-1.9189,-1.9158,-1.9134,-1.9124,-1.9115,-1.9126,-1.9112,-1.9081,-1.9076,-1.907,-1.9072,-1.9125,-1.9125,-1.9147,-1.9147,-1.9147]}]]